This is the latest recevied weather packets stored in our database for station/object KD6VEX-1. If no packets are shown the sender has not sent any weather packets the latest 1 day(s).
| Time | Temp. | Humidity | Pressure | Rain* | Wind** | Luminosity | Snow |
|---|---|---|---|---|---|---|---|
| 1836274796 | 17.22° C | 89% | 1013.8 hPa | 0 mm | 0 m/s | - | - |
| 1836274496 | 17.78° C | 89% | 1013.8 hPa | 0 mm | 0 m/s | - | - |
| 1836274346 | 17.22° C | 89% | 1013.8 hPa | 0 mm | 0 m/s | - | - |
| 1836274196 | 17.78° C | 89% | 1013.7 hPa | 0 mm | 0 m/s | - | - |
| 1836273896 | 17.78° C | 89% | 1013.7 hPa | 0 mm | 0 m/s | - | - |
| 1778048545 | 11.11° C | 87% | 1017.6 hPa | 0 mm | 0 m/s | - | - |
| 1778048246 | 11.11° C | 86% | 1017.7 hPa | 0 mm | 0 m/s | - | - |
| 1778047945 | 11.11° C | 86% | 1017.7 hPa | 0 mm | 0 m/s | - | - |
| 1778047646 | 11.11° C | 85% | 1017.6 hPa | 0 mm | 0 m/s | - | - |
| 1778047345 | 11.11° C | 85% | 1017.6 hPa | 0 mm | 0 m/s | - | - |
| 1778047046 | 11.67° C | 85% | 1017.6 hPa | 0 mm | 0 m/s | - | - |
| 1778046745 | 11.67° C | 85% | 1017.6 hPa | 0 mm | 0 m/s | - | - |
| 1778046446 | 11.67° C | 85% | 1017.6 hPa | 0 mm | 0 m/s | - | - |
| 1778046145 | 11.67° C | 84% | 1017.5 hPa | 0 mm | 0 m/s | - | - |
| 1778045845 | 11.67° C | 84% | 1017.6 hPa | 0 mm | 0 m/s | - | - |
| 1778045545 | 11.67° C | 84% | 1017.6 hPa | 0 mm | 0 m/s | - | - |
| 1778045245 | 11.67° C | 84% | 1017.3 hPa | 0 mm | 0 m/s | - | - |
| 1778044946 | 12.22° C | 83% | 1017.3 hPa | 0 mm | 0 m/s | - | - |
| 1778044646 | 12.22° C | 83% | 1017.4 hPa | 0 mm | 0 m/s | - | - |
| 1778044235 | 12.22° C | 83% | 1017.3 hPa | 0 mm | 0 m/s | - | - |
| 1778043936 | 12.22° C | 82% | 1017.4 hPa | 0 mm | 0 m/s | - | - |
| 1778043635 | 12.22° C | 82% | 1017.2 hPa | 0 mm | 0 m/s | - | - |
| 1778043335 | 12.22° C | 81% | 1017.2 hPa | 0 mm | 0 m/s | - | - |
| 1778043036 | 12.78° C | 81% | 1017.1 hPa | 0 mm | 0 m/s | - | - |
| 1778042735 | 12.78° C | 81% | 1017.1 hPa | 0 mm | 0 m/s | - | - |
* Rain latest hour (hover to see other rain measurements)
** Current wind speed in m/s (hover to see current wind gust speed)